Location: Antioch Baptist Church
(32.6696°N, 85.7327°W)
Time: 12:17:33
(UTC+00:00)

Lacrosse 5 - Pass Details

Date: 14 July 2020
Orbit: 717 x 720 km, 57.0° (Epoch: 04 August)

Event Time Altitude Azimuth Distance (km) Brightness Sun altitude
Exits shadow 06:47:15 12° 312° (NW) 2,042 4.4 -34.0°
Maximum altitude 06:48:23 13° 327° (NNW) 1,992 4.5 -33.9°
Drops below altitude 10° 06:50:45 10° 355° (N) 2,202 5.1 -33.8°
Sets 06:54:30 0° 22° (NNE) 3,125 6.2 -33.5°
